Torna al catalogo

IRIDIUM 109

AttivoComunicazioniPO
NORAD 41919·PAYLOAD·🇺🇸 United States

Lanciato Jan 14, 2017 da Vandenberg Space Force Base

Loading…

Prossimi Passaggi (prossime 24 ore)

TLE

AggiornatoSource: CelesTrak SupGP

Epoca: Sep 14, 2026, 21:38 UTC

1 41919C 17003C   26257.90173611  .00003025  00000+0  10815-2 0  2578
2 41919  86.3950  50.9767 0002214  93.0550  12.8930 14.34211896    15

Traccia IRIDIUM 109 in tempo reale con AllMySat

Download on the App Store